Theta_e
303 303 303 304 304 304 304 305 305 305 305 305 305 306 308 309 309 308 308 308 308 308 307 307 307 307 307 308 308 312 310 311 311 311 313 314 313 313 314 312 312 312 313 315 315 315 314
303 303 304 304 304 304 305 305 305 305 305 306 306 306 306 306 308 308 308 308 308 308 308 307 307 306 306 307 310 312 310 310 312 312 312 313 313 313 313 313 313 312 313 313 313 314 314
303 304 304 304 304 305 305 305 305 305 305 305 304 304 305 306 307 309 309 309 309 309 308 307 307 306 306 307 309 313 311 310 312 313 314 314 314 314 313 311 313 314 313 312 313 314 314
304 304 304 304 304 304 305 304 304 304 304 304 304 304 304 305 307 308 309 309 309 309 309 308 306 306 307 308 310 312 311 310 311 313 315 315 316 315 314 314 313 313 312 312 312 313 314
304 304 304 304 304 303 303 303 303 303 303 303 304 304 305 305 305 308 308 309 309 309 310 308 306 306 309 310 312 311 311 311 311 312 315 315 315 315 313 312 308 309 311 312 312 312 313
310 307 304 303 302 302 302 302 303 303 303 303 304 304 304 304 304 307 306 308 308 308 311 309 309 310 310 311 310 310 311 311 312 313 315 315 314 310 308 309 310 306 312 312 312 312 312
308 303 303 302 303 302 303 303 303 303 303 304 304 304 304 304 304 305 305 307 308 308 309 309 310 311 310 310 310 310 310 312 313 315 313 314 313 311 309 308 310 311 312 312 312 312 311
307 307 307 306 305 304 304 304 304 304 304 305 304 304 304 304 304 304 304 307 308 307 309 308 308 308 308 309 309 309 311 313 314 312 312 309 312 310 310 310 311 311 311 311 310 311 312
309 309 307 306 304 303 303 304 305 305 305 305 305 305 305 306 306 305 303 306 307 308 308 308 309 310 310 309 309 309 311 313 311 311 310 308 308 311 311 313 313 311 311 311 312 311 310
308 302 299 298 298 298 299 300 300 300 301 302 302 302 302 304 305 306 306 306 307 308 303 308 310 310 309 310 308 309 312 311 309 310 308 308 308 310 311 312 311 313 311 312 313 313 312
296 295 296 296 296 296 297 297 298 298 299 299 300 301 301 301 300 304 306 306 309 309 303 308 308 309 309 309 308 309 313 312 310 308 307 306 309 312 313 312 311 312 312 313 314 313 310
295 295 295 295 295 295 296 296 296 297 298 298 298 299 300 299 299 303 306 306 310 305 304 307 307 308 308 308 308 311 312 312 310 309 307 307 307 309 309 310 311 311 311 309 309 308 309
294 294 294 294 294 294 295 296 296 297 297 298 298 298 298 298 302 307 307 309 303 303 306 308 307 307 308 308 308 309 309 310 308 307 306 306 307 307 309 310 310 312 309 309 309 307 310
294 293 293 294 294 293 294 295 296 296 296 297 297 298 301 304 303 307 307 303 302 303 303 306 307 307 307 307 307 308 308 307 306 306 306 306 307 308 308 309 308 312 310 308 312 313 311
293 293 293 294 294 293 294 294 295 296 296 297 297 301 308 309 309 308 310 300 303 303 305 306 304 306 306 308 307 306 306 306 305 304 307 306 306 307 308 308 308 309 312 309 312 308 310
293 294 294 293 293 293 294 294 295 295 296 296 297 306 308 308 307 307 305 305 302 307 305 305 306 304 305 304 305 305 304 304 306 304 305 306 305 306 307 308 307 308 307 310 307 312 314
294 293 293 293 293 293 293 293 293 294 295 296 297 307 308 307 306 309 301 303 306 307 306 306 306 305 305 304 304 304 304 304 303 306 305 305 303 304 307 307 307 308 308 308 307 308 312
294 295 295 294 292 292 292 293 293 293 294 295 299 300 306 308 304 300 303 302 305 305 304 305 305 305 305 304 304 305 304 304 304 304 306 305 303 304 305 305 305 306 306 306 309 309 307
292 293 293 293 292 291 291 292 292 292 293 294 299 301 303 307 300 299 298 300 304 302 299 303 303 302 303 304 306 304 303 304 301 303 304 303 304 303 305 305 307 307 306 306 305 305 308
293 294 295 295 294 293 290 291 291 291 293 294 299 295 296 297 296 297 298 299 301 298 297 297 297 298 299 300 303 303 303 302 299 301 306 306 303 304 306 304 304 306 307 305 306 306 307
294 294 294 295 295 294 293 291 290 290 291 293 293 294 292 292 293 294 294 296 298 295 294 294 297 295 295 297 297 300 298 296 298 299 302 302 304 302 302 302 303 304 305 305 304 305 305
294 296 296 295 295 294 294 293 290 289 289 290 292 291 292 292 293 292 293 294 295 294 293 294 295 294 294 295 295 295 295 294 295 299 299 299 306 305 305 305 305 306 306 306 305 305 305
294 292 293 294 294 294 294 293 293 292 290 290 290 291 293 292 293 293 293 293 293 293 293 294 294 293 294 294 294 293 293 294 294 295 295 296 298 301 303 304 305 306 306 306 305 304 304
293 294 293 294 294 293 294 293 293 293 292 292 291 291 291 292 292 292 292 291 292 293 293 293 292 292 294 294 293 293 293 293 293 294 295 296 296 298 300 303 304 303 303 303 303 304 303
294 294 294 293 293 294 293 293 293 293 292 292 292 292 290 289 291 291 291 292 291 291 291 292 292 293 293 292 293 293 292 294 295 294 294 295 296 297 301 302 302 304 304 304 304 305 302
294 295 293 293 295 293 293 293 293 293 293 293 293 293 292 291 290 290 291 291 290 291 290 292 291 291 292 293 293 293 292 292 291 291 291 297 298 300 299 302 304 303 302 302 302 304 301
291 292 292 292 292 293 293 292 292 292 292 292 292 292 292 292 291 292 291 291 292 291 291 291 291 292 291 291 291 291 292 292 293 291 292 294 295 298 301 303 302 296 297 300 305 300 297
293 292 293 293 293 293 292 292 292 292 292 293 293 293 293 293 293 292 292 292 291 291 291 291 291 290 291 291 291 291 290 292 293 293 293 293 292 293 293 296 296 296 297 298 297 295 296
292 292 292 292 292 292 291 292 292 292 292 292 293 292 293 293 292 292 292 292 292 291 291 291 291 290 291 288 286 285 290 288 290 290 290 290 290 290 293 295 295 294 296 296 295 294 296
Wind_Speed
8 9 10 10 10 11 12 12 14 15 16 16 16 15 14 14 14 15 14 14 13 13 15 16 16 15 13 9 7 7 9 8 7 5 5 6 4 4 3 3 6 5 6 14 19 23 22
8 8 9 9 10 10 11 12 13 14 15 16 17 17 17 17 16 15 14 15 14 13 14 14 14 12 10 5 6 6 8 7 5 4 3 5 3 5 5 5 2 4 12 20 20 26 17
8 9 8 9 10 10 11 12 12 13 14 15 16 17 19 19 17 15 16 17 16 17 14 13 12 11 11 13 7 7 8 7 5 4 4 4 5 4 5 5 6 11 6 8 5 3 4
7 8 9 9 10 11 12 13 13 13 14 15 17 18 19 20 19 16 18 18 20 14 11 10 9 8 7 7 9 8 8 7 5 6 5 5 6 7 3 8 6 5 1 5 6 4 3
10 10 10 10 11 12 13 14 14 14 14 15 17 18 19 20 20 16 18 19 17 13 9 6 5 6 6 6 7 7 8 7 6 6 5 7 8 3 3 3 4 4 5 4 8 4 2
11 11 11 12 13 13 14 14 15 15 16 16 17 18 19 20 21 17 20 21 14 13 5 5 7 4 7 3 5 7 7 8 5 5 5 3 1 2 2 2 3 5 5 4 7 5 5
10 13 14 14 15 16 17 17 17 18 19 19 19 19 19 21 21 19 19 16 9 5 10 10 6 6 7 7 7 9 7 5 6 3 2 1 2 6 9 6 5 4 4 8 12 13 5
16 16 18 18 18 19 19 20 20 21 22 21 22 22 22 20 21 19 17 10 9 10 14 14 18 21 18 15 6 8 7 5 4 4 3 2 7 8 5 4 4 5 6 10 10 4 3
17 18 20 21 21 22 23 23 23 24 25 25 25 25 24 21 21 17 16 11 13 13 5 6 6 5 4 7 5 4 8 3 5 3 5 6 4 2 3 2 4 4 5 6 7 7 4
20 20 21 21 23 24 24 25 24 25 25 25 25 26 26 23 16 11 14 12 13 13 5 5 3 2 4 4 3 5 8 3 2 5 3 6 3 3 4 5 5 5 4 5 7 6 3
19 20 21 21 22 23 24 25 26 26 28 29 27 25 25 21 18 14 11 10 10 6 5 1 2 3 3 4 3 3 7 4 5 3 3 7 2 4 4 6 6 8 1 4 2 3 3
18 19 21 22 23 24 25 27 28 29 28 29 28 25 25 20 15 11 7 6 5 6 6 3 2 0 1 3 2 3 3 6 3 3 4 8 4 4 6 4 6 4 4 2 3 1 2
18 19 19 20 22 23 25 26 28 28 29 30 27 24 19 14 6 3 2 1 5 4 3 3 3 1 2 3 3 4 3 3 3 3 4 4 3 3 4 2 1 2 4 4 5 3 4
16 18 19 21 23 24 25 27 28 28 28 28 26 18 10 6 4 4 4 4 3 4 5 4 3 1 4 1 2 1 2 4 5 2 2 1 8 5 4 5 4 4 4 4 4 3 4
16 17 19 21 22 24 26 28 29 29 29 29 23 8 8 8 2 5 4 3 6 2 5 7 8 2 3 2 1 3 4 4 5 8 7 3 6 0 3 1 4 2 3 3 1 1 1
15 18 19 21 22 24 25 28 30 30 30 29 18 2 12 7 2 4 3 4 2 3 7 3 2 3 3 4 5 1 3 2 4 6 0 2 5 2 1 2 1 3 4 2 2 2 5
13 16 19 20 21 24 26 28 30 32 31 28 8 2 11 6 1 1 2 3 4 9 15 4 3 5 4 4 2 3 4 4 9 4 3 2 3 5 1 5 6 2 2 1 1 4 4
14 17 19 22 25 26 27 27 29 32 33 28 7 3 15 6 2 3 2 6 7 9 17 6 6 4 4 5 4 3 4 4 22 9 5 3 3 4 10 1 3 3 6 5 4 4 3
14 16 18 22 24 25 27 28 29 30 30 28 8 7 13 5 4 4 8 5 7 10 8 8 9 7 6 5 5 1 6 2 31 12 7 5 3 4 8 4 1 2 3 4 2 1 6
14 15 18 21 23 26 28 29 29 28 25 18 7 4 10 15 11 4 6 5 7 12 6 10 6 7 7 6 4 7 6 5 29 17 26 4 4 7 9 7 1 5 4 5 6 3 4
13 15 17 20 22 24 29 30 30 29 25 11 8 5 6 4 6 6 3 6 6 9 11 15 3 9 6 5 8 4 4 12 12 21 10 4 5 4 5 8 8 13 14 12 12 18 11
13 15 17 18 21 22 24 27 29 28 27 24 6 6 6 3 6 7 6 6 6 6 3 5 4 12 9 5 6 16 10 8 10 5 8 6 4 8 17 13 16 22 20 16 21 17 16
12 11 12 16 19 20 20 23 23 25 27 14 12 6 3 5 5 3 1 3 7 9 6 6 15 15 10 12 14 27 30 29 27 17 13 9 6 6 19 10 11 15 17 21 13 13 9
12 13 14 16 15 17 18 19 21 20 20 18 16 7 5 2 3 3 8 13 8 5 9 15 22 5 7 25 35 31 29 32 32 27 28 15 12 7 14 9 17 9 2 4 9 15 5
13 14 14 15 16 16 18 18 15 17 16 14 12 8 3 2 7 13 5 2 15 17 7 9 14 13 21 21 6 8 4 4 5 6 10 20 12 6 7 9 17 26 16 17 8 14 16
13 14 15 15 14 16 16 16 16 13 12 14 13 10 9 3 4 7 5 12 4 3 5 7 13 22 11 5 4 4 4 4 5 12 5 5 15 9 6 10 7 1 2 17 1 3 14
16 17 17 17 17 17 17 18 18 16 14 13 15 13 13 11 15 10 8 7 9 8 5 12 11 6 18 3 4 5 8 3 6 6 5 3 3 9 11 11 8 8 20 17 10 10 31
16 17 17 17 18 18 20 18 18 17 16 15 18 19 19 18 21 26 28 23 16 15 8 12 9 5 3 4 3 3 5 4 6 11 3 5 6 4 4 5 13 21 11 8 11 31 37
18 18 19 20 19 19 19 16 18 20 20 20 23 23 24 25 31 36 37 40 36 37 32 18 13 12 6 1 2 1 6 4 11 19 7 10 6 4 7 12 35 55 23 21 22 26 29
Wind_Direction
47 41 36 34 29 25 21 17 16 15 14 13 13 9 359 349 345 339 332 326 318 308 295 290 290 295 304 297 276 303 331 342 353 356 347 351 360 342 285 289 304 222 269 279 281 287 282
40 37 33 27 21 14 11 9 7 7 7 7 7 5 0 352 344 343 341 334 325 314 304 298 293 290 289 265 263 286 318 331 344 350 342 347 340 320 280 269 232 258 279 282 283 279 270
30 25 21 14 9 2 357 358 358 358 357 359 1 2 1 357 351 343 340 335 328 319 306 293 287 283 274 267 245 275 300 314 318 325 355 346 331 328 321 288 293 281 299 301 270 289 256
26 15 8 1 354 349 348 347 347 351 350 351 353 355 358 358 354 346 339 334 329 321 310 296 277 270 257 258 248 265 281 297 295 286 301 317 317 303 231 301 308 303 327 350 296 310 284
17 7 357 348 345 342 343 343 342 341 342 343 343 345 347 351 351 346 341 335 328 322 311 294 257 248 268 259 253 258 264 280 281 280 285 283 303 289 318 3 341 346 297 280 312 293 243
27 8 350 347 346 342 340 339 337 335 334 333 334 335 337 339 342 338 343 340 327 318 301 289 243 253 236 259 278 277 270 266 268 282 280 224 296 356 356 83 279 281 311 297 258 280 325
7 353 350 344 341 338 336 334 332 329 326 325 324 324 327 329 333 332 339 344 334 293 288 239 251 249 266 273 283 275 261 241 257 248 226 204 9 240 247 213 223 264 266 270 277 282 272
352 349 346 342 337 332 329 328 326 323 320 320 318 317 318 321 324 326 334 348 338 307 303 277 248 250 256 269 277 256 227 219 194 237 147 2 237 242 235 223 220 238 277 283 284 261 268
347 347 342 339 335 333 330 327 325 322 319 318 316 314 313 316 316 312 329 333 337 334 285 287 234 235 223 219 237 249 201 213 213 250 204 195 235 94 192 267 275 243 227 260 262 326 287
345 343 342 340 336 334 331 328 327 322 318 317 316 316 313 313 309 305 316 327 339 338 32 271 246 235 190 203 271 222 204 234 248 245 244 232 270 217 205 246 183 291 212 259 292 4 305
342 341 341 341 340 337 333 331 329 327 323 318 318 314 309 311 300 298 301 325 336 344 1 256 189 185 199 208 300 209 204 204 236 253 91 261 233 218 225 223 160 234 282 268 279 269 349
342 342 344 343 339 338 338 335 332 330 326 320 323 317 309 306 296 284 286 321 333 43 255 313 154 241 286 217 243 158 179 222 270 286 225 252 291 245 218 225 195 348 338 10 62 73 357
344 343 344 342 339 339 339 335 333 334 331 327 329 321 313 306 282 226 272 302 33 146 323 302 306 170 247 240 261 179 190 200 211 342 331 312 224 258 181 247 79 103 46 328 346 8 235
346 346 345 345 345 346 345 341 340 342 339 334 335 332 326 323 263 227 161 60 178 250 272 335 341 294 241 26 255 230 293 285 219 148 313 327 321 191 183 211 182 177 151 153 269 284 289
346 348 350 351 351 351 350 347 345 347 344 340 342 338 16 11 35 178 167 88 215 205 289 329 323 284 292 55 233 348 225 245 232 177 180 176 273 319 233 156 145 174 180 171 244 74 357
357 358 359 358 360 355 353 351 350 350 350 345 346 61 23 12 22 153 80 245 283 31 322 341 271 30 321 318 344 287 264 212 282 198 63 274 300 226 305 120 26 180 166 70 16 299 294
2 6 6 4 0 357 359 357 356 351 354 350 352 84 13 355 51 202 155 255 315 350 9 325 312 302 277 290 282 275 279 343 349 341 192 166 152 287 351 203 186 140 240 188 140 173 211
13 14 9 5 3 4 359 360 1 357 354 2 13 40 8 356 40 20 24 314 339 339 6 337 349 358 339 328 301 277 253 24 4 334 322 299 190 260 236 293 174 173 197 167 149 244 243
9 9 9 5 2 359 358 358 3 5 1 359 8 347 13 34 48 359 327 333 11 17 22 5 358 17 4 318 319 342 334 62 14 10 3 330 280 326 326 18 30 211 204 198 134 110 205
12 14 10 4 5 1 3 1 5 9 10 5 13 16 19 53 47 26 354 345 340 15 63 10 18 35 353 346 8 315 325 329 337 341 330 267 234 214 242 255 344 253 205 200 192 212 265
6 6 7 1 6 3 4 4 5 10 16 16 38 57 13 354 359 348 338 0 348 8 354 5 62 33 2 298 308 293 345 329 319 312 330 36 275 262 283 302 294 278 274 265 241 250 243
358 2 0 355 352 2 0 4 6 8 17 42 47 14 14 349 334 348 356 15 49 347 311 341 23 339 325 254 277 302 320 319 271 311 5 340 283 332 299 282 272 274 270 259 256 259 250
349 341 344 353 351 352 358 356 7 10 14 46 42 21 12 340 351 342 19 30 330 338 287 293 336 321 303 285 305 296 278 266 253 259 259 257 271 289 277 298 292 285 248 236 247 240 228
342 338 346 344 342 346 348 353 357 10 12 23 26 30 18 333 326 301 306 311 304 309 275 294 307 280 275 309 310 304 274 256 250 250 237 246 236 236 265 287 273 261 227 295 254 259 276
333 338 333 324 338 339 335 346 351 351 360 359 4 9 11 268 252 296 287 273 309 301 279 284 299 305 315 317 305 307 300 315 294 232 231 223 230 253 239 239 273 289 302 292 246 269 14
328 328 324 330 327 321 323 324 328 330 336 330 331 331 311 246 242 258 280 301 294 272 296 243 294 304 320 333 324 288 300 350 290 323 312 171 208 227 241 256 256 271 351 341 286 240 16
317 319 320 323 327 328 327 324 325 324 320 313 309 312 301 271 277 262 227 268 282 274 268 278 276 263 289 254 261 256 257 232 269 257 338 336 326 248 256 252 254 359 330 325 268 331 328
313 316 318 316 320 320 317 319 315 321 326 318 305 300 293 276 278 270 273 261 259 248 259 275 304 284 223 227 243 240 255 230 283 252 293 311 307 306 304 290 269 11 12 9 333 323 317
311 313 315 308 310 314 314 326 325 317 310 310 297 302 301 284 272 279 277 274 267 269 268 260 249 262 257 211 261 272 280 251 257 273 310 278 218 238 273 275 299 295 290 288 292 298 307